Location: Castellar de la Frontera
(36.3200°N, 5.4500°W)
Time: 08:23:14
(UTC+02:00)

ISS - Pass Details

Date: 18 July 2018
Orbit: 402 x 408 km, 51.6° (Epoch: 16 July)

Event Time Altitude Azimuth Distance (km) Brightness Sun altitude
Rises 22:13:03 0° 180° (S) 2,298 -0.3 -7.0°
Reaches altitude 10° 22:16:44 10° 136° (SE) 1,447 -1.7 -7.6°
Maximum altitude 22:17:17 10° 126° (SE) 1,430 -1.8 -7.7°
Enters shadow 22:17:26 10° 124° (ESE) 1,431 -1.8 -7.7°
